Imperial, NE

7:47 AM MDT on September 26, 2017 (GMT -0600)
Imperial Municipal

Weather History for KIML - March, 2013

Change the Weather History Date:

Monday, March 11, 2013

  Actual Average Record
Temperature  
Mean Temperature 32 °F 38 °F  
Max Temperature 48 °F 53 °F 84 °F (1972)
Min Temperature 16 °F 24 °F -7 °F (1932)
Degree Days  
Heating Degree Days 33 26  
Month to date heating degree days 313 308  
Cooling Degree Days 0 0  
Month to date cooling degree days 0 0  
Year to date cooling degree days 0 0  
Moisture  
Dew Point 24 °F    
Average Humidity 66    
Maximum Humidity 82    
Minimum Humidity 49    
Precipitation  
Precipitation 0.00 in 0.04 in 0.62 in (1977)
Sea Level Pressure  
Sea Level Pressure 30.04 in    
Wind  
Wind Speed 10 mph (WNW)    
Max Wind Speed 26 mph    
Max Gust Speed 32 mph    
Visibility 10 miles    
Events      
T = Trace of Precipitation, MM = Missing Value Source: NWS Daily Summary

Daily Weather History Graph

Daily Weather History Graph

Search for Another Location

Airport or City:

Trip Planner

Search our weather history database for the weather conditions in past years. The results will help you decide how hot, cold, wet, or windy it might be!

Date:

Astronomy

Mar. 11, 2013 Rise Set
Actual Time 7:04 AM MDT 6:49 PM MDT
Civil Twilight 6:36 AM MDT 7:16 PM MDT
Nautical Twilight 6:05 AM MDT 7:48 PM MDT
Astronomical Twilight 5:33 AM MDT 8:20 PM MDT
Moon 6:38 AM MDT (3/11) 7:03 PM MDT (3/11)
Length of Visible Light 12h 39m
Length of Day
11h 45m
Waning Crescent, 0% of the Moon is Illuminated
Mar 11
Waning Crescent
Mar 11
New
Mar 19
First Quarter
Mar 27
Full
Apr 2
Last Quarter

Hourly Weather History & Observations

Time (MDT) Temp. Windchill Dew Point Humidity Pressure Visibility Wind Dir Wind Speed Gust Speed Precip Events Conditions
12:53 AM 19.9 °F 12.1 °F 12.9 °F 74% 30.12 in 10.0 mi West 5.8 mph - N/A   Clear
1:53 AM 19.9 °F 12.1 °F 12.0 °F 71% 30.09 in 10.0 mi West 5.8 mph - N/A   Clear
2:53 AM 18.0 °F 7.7 °F 12.0 °F 78% 30.07 in 10.0 mi West 8.1 mph - N/A   Clear
3:53 AM 19.0 °F 11.1 °F 12.0 °F 74% 30.04 in 10.0 mi WNW 5.8 mph - N/A   Clear
4:53 AM 19.9 °F 11.1 °F 12.9 °F 74% 30.02 in 10.0 mi West 6.9 mph - N/A   Clear
5:53 AM 21.0 °F 12.4 °F 14.0 °F 74% 30.03 in 10.0 mi West 6.9 mph - N/A   Clear
6:53 AM 21.0 °F 11.4 °F 12.9 °F 71% 30.04 in 10.0 mi West 8.1 mph - N/A   Clear
7:53 AM 19.9 °F 9.3 °F 12.9 °F 74% 30.04 in 10.0 mi West 9.2 mph - N/A   Clear
8:53 AM 28.0 °F 20.0 °F 19.9 °F 72% 30.03 in 10.0 mi West 8.1 mph - N/A   Clear
9:53 AM 36.0 °F 29.0 °F 23.0 °F 59% 30.02 in 10.0 mi WNW 9.2 mph - N/A   Partly Cloudy
10:53 AM 42.1 °F 34.9 °F 27.0 °F 55% 30.01 in 10.0 mi NW 13.8 mph - N/A   Overcast
11:53 AM 43.0 °F 36.0 °F 28.9 °F 58% 30.01 in 10.0 mi NW 13.8 mph - N/A   Scattered Clouds
12:53 PM 45.0 °F 38.9 °F 30.9 °F 58% 30.00 in 10.0 mi NNW 12.7 mph - N/A   Clear
1:53 PM 46.9 °F - 28.0 °F 48% 29.97 in 10.0 mi NNW 13.8 mph - N/A   Partly Cloudy
2:53 PM 46.0 °F 40.2 °F 30.0 °F 54% 29.99 in 10.0 mi North 12.7 mph - N/A   Overcast
3:53 PM 45.0 °F 36.9 °F 33.1 °F 63% 29.99 in 10.0 mi NW 20.7 mph 32.2 mph N/A   Scattered Clouds
4:53 PM 42.1 °F 35.2 °F 32.0 °F 67% 30.00 in 10.0 mi NW 12.7 mph 21.9 mph N/A   Overcast
5:53 PM 41.0 °F 34.7 °F 32.0 °F 70% 30.01 in 10.0 mi West 10.4 mph - N/A   Overcast
6:53 PM 41.0 °F 34.3 °F 32.0 °F 70% 30.03 in 10.0 mi West 11.5 mph - N/A   Overcast
7:53 PM 41.0 °F 34.3 °F 28.9 °F 62% 30.06 in 10.0 mi WNW 11.5 mph - N/A   Mostly Cloudy
8:12 PM 37.4 °F 30.8 °F 28.4 °F 70% 30.01 in 10.0 mi North 9.2 mph - N/A   Overcast
8:53 PM 36.0 °F 29.6 °F 28.0 °F 73% 30.10 in 10.0 mi North 8.1 mph - N/A   Overcast
9:53 PM 35.1 °F 29.3 °F 28.0 °F 76% 30.12 in 10.0 mi NW 6.9 mph - N/A   Overcast
10:53 PM 34.0 °F 28.0 °F 28.0 °F 79% 30.14 in 10.0 mi WNW 6.9 mph - N/A   Overcast
11:53 PM 34.0 °F 26.6 °F 28.0 °F 79% 30.15 in 10.0 mi WNW 9.2 mph - N/A   Overcast